Location: Anjeux
(47.8815°N, 6.2076°E)
Time: 13:50:21
(UTC+00:00)

COSMOS 2428 - Pass Details

Date: 05 March 2021
Orbit: 845 x 858 km, 70.9° (Epoch: 18 April)

Event Time Altitude Azimuth Distance (km) Brightness Sun altitude
Rises 03:55:54 0° 335° (NNW) 3,428 5.8 -22.8°
Reaches altitude 10° 03:58:30 10° 342° (NNW) 2,491 5.1 -22.4°
Maximum altitude 04:03:56 43° 54° (NE) 1,189 3.9 -21.5°
Drops below altitude 10° 04:09:21 10° 125° (SE) 2,485 5.7 -20.6°
Sets 04:11:56 0° 132° (SE) 3,419 6.3 -20.2°
